Location: Dreilärchen
(47.9312°N, 8.6113°E)
Time: 23:41:31
(UTC+00:00)

Cosmos 2219 Rocket - Pass Details

Date: 26 May 2022
Orbit: 827 x 847 km, 71.0° (Epoch: 02 July)

Event Time Altitude Azimuth Distance (km) Brightness Sun altitude
Exits shadow 00:43:08 12° 257° (WSW) 2,263 4.1 -18.6°
Maximum altitude 00:47:20 28° 312° (NW) 1,506 3.7 -18.4°
Drops below altitude 10° 00:52:08 10° 12° (NNE) 2,447 5.8 -18.1°
Sets 00:54:57 0° 23° (NNE) 3,386 7.1 -17.9°
